Powrót do katalogu

FENGYUN 1C DEB

AktywnySSO
NORAD 31507·DEBRIS·🇨🇳 China

Wystrzelony May 10, 1999 z Taiyuan Satellite Launch Center

Loading…

Następne Przeloty (najbliższe 24 godziny)

TLE

ŚwieżeSource: Space-Track

Epoka: Sep 14, 2026, 08:10 UTC

1 31507U 99025BWW 26257.34058051  .00000944  00000-0  22063-3 0  9992
2 31507  98.1669 287.7887 0113824 308.2138 114.9708 14.53143103 20195

Śledź FENGYUN 1C DEB w czasie rzeczywistym z AllMySat

Download on the App Store